#timestamp,LO_Frequency,Hit,StdDev 
1546174815.4,286047003.5,N
1546174835.3,286047006.8,Y
1546174855.1,286047003.4,P
1546174875.8,286047004.0,P
1546174895.7,286047003.9,P
1546174915.5,286047003.0,Y
1546174935.4,286047001.3,P
1546174955.2,286047001.7,N
1546174975.0,286047004.0,P
1546174975.9,286047004.0,Y
1546174995.8,286046998.5,P
1546175015.6,286047000.1,N
1546175035.5,286047000.7,N
1546175055.3,286047002.3,N
1546175075.1,286047001.9,N
1546175095.9,286047002.0,N
1546175115.7,286047001.7,N
1546175135.5,286047000.0,N
1546175155.4,286047000.0,N
1546175175.2,286046998.5,N
1546175195.1,286047002.4,N
1546175196.0,286047002.4,N
1546175215.8,286047000.1,N
1546175235.6,286046999.9,N
1546175255.5,286046999.8,N
1546175275.3,286047000.0,N
1546175295.1,286047001.9,N
1546175315.9,286047000.9,N
1546175335.7,286046999.2,N
1546175355.6,286046998.4,N
1546175375.4,286046999.1,N
1546175395.2,286046998.9,N
1546175415.1,286046996.6,N
1546175416.0,286046996.6,N
1546175435.8,286046996.7,N
1546175455.6,286046997.5,N
1546175475.5,286046997.7,N
1546175495.3,286046997.3,N
1546175515.2,286046999.3,N
1546175535.9,286046996.6,N
1546175555.7,286046997.0,N
1546175575.6,286046999.4,N
1546175595.4,286047001.0,N
1546175615.2,286046998.1,N
1546175635.1,286046997.5,N
1546175636.0,286046997.5,N
1546175655.8,286046995.0,N
1546175675.7,286046995.5,N
1546175695.5,286046993.3,Y
1546175715.3,286046995.3,P
1546175735.2,286046999.4,N
1546175755.0,286046997.5,N
1546175755.9,286046997.5,N
1546175775.8,286046999.5,N
1546175795.6,286046999.1,N
1546175815.4,286046995.3,Y
1546175835.3,286046997.7,P
1546175855.1,286046999.1,P
1546175875.9,286046998.9,N
1546175895.7,286047001.1,N
1546175915.5,286047000.8,N
1546175935.4,286046996.7,N
1546175955.2,286046999.0,N
1546175975.0,286046999.3,N
1546175975.9,286046999.3,N
1546175995.8,286047000.8,N
1546176015.6,286047000.4,N
1546176035.5,286047000.9,N
1546176055.3,286046998.2,N
1546176075.1,286046998.3,N
1546176095.9,286047001.2,N
1546176115.7,286047000.7,N
1546176135.6,286046998.8,N
1546176155.4,286047000.8,N
1546176175.2,286047000.8,N
1546176195.1,286047000.1,N
1546176196.0,286047000.1,N
1546176215.8,286046999.7,N
1546176235.6,286047002.4,N
1546176255.5,286047001.3,N
1546176275.3,286047003.8,N
1546176295.2,286047005.5,Y
1546176315.9,286047005.7,P
1546176335.7,286047004.9,N
1546176355.6,286047009.2,P
1546176375.4,286047006.5,N
1546176395.2,286047006.4,N
1546176415.1,286047006.4,N
1546176416.0,286047006.4,N
1546176435.8,286047006.8,N
1546176455.7,286047006.4,N
1546176475.5,286047007.1,Y
1546176495.3,286047000.1,P
1546176515.2,286046999.9,N
1546176535.0,286047001.8,N
1546176535.9,286047001.8,N
1546176555.8,286047002.5,N
1546176575.6,286047002.5,N
1546176595.4,286047002.6,N
1546176615.3,286047002.7,N
1546176635.1,286047000.5,N
1546176655.9,286046999.9,N
1546176675.7,286047000.3,N
1546176695.5,286047002.6,N
1546176715.4,286047002.2,N
1546176735.2,286047004.3,N
1546176755.0,286047003.2,N
1546176755.9,286047003.2,N
1546176775.8,286047001.9,N
1546176795.6,286047003.5,N
1546176815.5,286047004.9,Y
1546176835.3,286047004.2,P
1546176855.1,286047003.2,P
1546176875.9,286047003.8,P
1546176895.7,286047001.4,N
1546176915.6,286047000.5,N
1546176935.4,286047000.6,N
1546176955.2,286047001.1,N
1546176975.1,286046998.1,N
1546176976.0,286046998.1,N
1546176995.8,286047000.8,N
1546177015.6,286047000.9,N
1546177035.5,286047002.6,N
1546177055.3,286047000.2,N
1546177075.2,286047001.6,N
1546177095.9,286047001.9,N
1546177115.7,286047002.2,N
1546177135.6,286046999.8,N
1546177155.4,286047001.1,N
1546177175.2,286047000.8,N
1546177195.1,286046998.5,N
1546177196.0,286046998.5,N
1546177215.8,286047000.0,N
1546177235.7,286047000.8,N
1546177255.5,286047001.0,N
1546177275.3,286046999.9,N
1546177295.2,286047000.1,N
1546177315.0,286047002.3,N
1546177315.9,286047002.3,N
1546177335.8,286047000.0,N
1546177355.6,286047000.8,N
1546177375.4,286047000.4,N
1546177395.3,286046998.6,N
1546177415.1,286046996.6,N
1546177435.8,286046998.9,N
1546177455.7,286046996.7,N
1546177475.5,286046997.4,N
1546177495.4,286046999.6,N
1546177515.2,286046997.3,N
1546177535.0,286046995.6,N
1546177535.9,286046995.6,N
1546177555.8,286046995.6,N
1546177575.6,286046997.6,N
1546177595.5,286046997.5,N
1546177615.3,286046997.7,N
1546177635.1,286046999.0,N
1546177655.9,286046999.0,N
1546177675.7,286046999.1,N
1546177695.5,286046998.4,N
1546177715.4,286047000.6,N
1546177735.2,286047000.3,N
1546177755.1,286047000.1,N
1546177756.0,286047000.1,N
1546177775.8,286047000.7,N
1546177795.6,286046999.2,N
1546177815.5,286046999.3,N
1546177835.3,286046998.9,N
1546177855.2,286046996.5,N
1546177875.9,286046997.4,N
1546177895.7,286046995.3,N
1546177915.6,286046995.9,N
1546177935.4,286046995.1,Y
1546177955.2,286046996.5,P
1546177975.1,286046997.3,P
1546177976.0,286046997.3,P
1546177995.8,286046999.1,N
1546178015.7,286046997.5,N
1546178035.5,286046997.0,Y
1546178055.3,286047000.3,P
1546178075.2,286047000.2,N
1546178095.0,286047000.6,N
1546178095.9,286047000.6,N
1546178115.8,286046999.2,N
1546178135.6,286046998.4,N
1546178155.4,286047000.9,N
1546178175.3,286047001.2,N
1546178195.1,286046996.6,Y
1546178215.9,286046996.6,P
1546178235.7,286046996.5,N
1546178255.5,286046996.9,N
1546178275.4,286046998.4,N
1546178295.2,286046998.4,N
1546178315.0,286046996.9,N
1546178315.9,286046996.9,N
1546178335.8,286046997.9,N
1546178355.6,286046995.3,Y
1546178375.5,286046997.2,P
1546178395.3,286046997.2,P
